Simultaneous Nadir Overpasses (SNOs) Predictions

Prediction of SNOs between METOP-C and LANDSAT-8 Satellite Orbit:

Table of predicted SNOs for the next 14.0 days since TLE Epoch: 6/29/2019
Index Date (METOP-C) Time (METOP-C) Lat,Lon (METOP-C) SZA (METOP-C ) Date (LANDSAT-8) Time (LANDSAT-8) Lat,Lon (LANDSAT-8) SZA (LANDSAT-8 ) Distance(km) Time Diff (sec)
1 06/29/2019 17:36:48 -81.12, 135.64 120.02 06/29/2019 17:36:59 -81.12, 135.74 120.01 1.82 11
2 06/29/2019 18:27:26 81.15, -56.15 60.10 06/29/2019 18:26:24 81.15, -56.14 60.07 0.19 62
3 07/02/2019 13:11:09 -81.14,-157.57 119.80 07/02/2019 13:11:13 -81.14,-157.45 119.78 2.25 4
4 07/02/2019 14:01:48 81.15, 10.29 60.27 07/02/2019 14:00:39 81.15, 10.28 60.24 0.46 69
5 07/05/2019 07:54:52 81.12, 101.09 60.36 07/05/2019 07:56:03 81.12, 101.00 60.39 1.46 71
6 07/05/2019 08:45:32 -81.14, -91.15 119.58 07/05/2019 08:45:29 -81.14, -91.02 119.56 2.37 3
7 07/08/2019 03:29:15 81.12, 167.53 60.64 07/08/2019 03:30:19 81.12, 167.39 60.65 2.42 64
8 07/08/2019 04:19:55 -81.14, -24.73 119.31 07/08/2019 04:19:45 -81.14, -24.61 119.29 2.18 10
9 07/10/2019 23:03:38 81.11,-126.41 60.93 07/10/2019 23:04:34 81.11,-126.24 60.97 2.90 56




NCC Satellite Simultaneous Nadir Overpasses (SNOs) Prediction Service
